STARLINK-35588, 66424

Orbit data source: Space-Track

STARLINK-35588, 66424 is a payload satellite owned by SpaceX/Seattle (US) in LEO that was launched on Tue, 11 Nov 2025 UTC via an FALCON 9 launch vehicle from the Air Force Eastern Test Range (AFETR). Payload-class satellites include a variety of spacecraft equipped with specific instruments for various scientific and technological missions. These include communications satellites like Starlink; space stations such as the ISS; scientific satellites like the Hubble; Earth observation satellites from companies like Planet Labs, Umbra, and HawkEye 360; GPS; miniature CubeSats for education and research; and military/defense satellites.

Loading next visibility...
Identifier
66424, 2025-259C
Orbit
LEO
Country
Flag of USUS
Related business
Manufacturer
SpaceX/Seattle
Mission
Operational Commercial Communications
Bus & Motor
STARLINK V2MO, Unknown motor
Mass
575 kg wet, ~530 kg dry
Launch date (UTC)
2025-11-11 (7 months ago)
Launch vehicle
FALCON 9
Launch site
Air Force Eastern Test Range (AFETR)
Object type
Payload
Rocket body
Debris
Shape & HBR
Box + 2 Pan, 17.7 m
Radar Cross Section
36.964 m², Large (>1 m²)

Expand to show TLE details & history
Last TLE update: 14 hours ago

TLE from 14 hours ago
0 STARLINK-35588
1 66424U 25259C   26150.11870794  .00021998  00000-0  80658-3 0  9995
2 66424  42.9985 174.5900 0000677 281.9331  78.1444 15.27577590 31947
Epoch: 2026-05-30T02:50Z
TLE epoch observation values (Epoch: 2026-05-30T02:50:56.366Z)
Latitude
-0.00004°
Longitude
-115.78423°
Altitude
482.736 km
Speed
7.626 km/s
True Right ascension
11h 38m 21s
True Declination
0° 00' 00"
Sunlit
Object was in daylight at epoch
Visualization orbit readout
Latitude
Unknown
Longitude
Unknown
Altitude
Unknown
Speed
Unknown
Apparent Right ascension
Unknown
Apparent Declination
Unknown
Sunlit
N/A
Visualization observer readout
Local Sidereal Time
02:07:30
Azimuth
Unknown
Elevation
Unknown
Doppler factor
Unknown
Orbital elements
Apogee altitude
485.466 km
Perigee altitude
484.537 km
Semi-major axis
6,863.139 km
Eccentricity
0.00007
Inclination
42.9985°
RAAN
174.59°
Arg. of periapsis
281.9331°
True anomaly
78.15199°
Mean anomaly
78.1444°
Eccentric anomaly
78.1482°
Mean motion
3.81732 °/min
Orbital period
94.31 mins
BSTAR
0.00080658
Loading maneuver chart data...
Computing Atmospheric mass density...
Loading historical data...
Loading historical data...
Loading historical data...
Loading historical data...
Loading historical data...
Loading historical data...
Loading historical data...

Documentation

Showing up to 5 results
|